Location: Caltech
(34.1382°N, 118.1253°W)
Time: 17:15:42
(UTC-07:00)

NOAA 19 - Visible Passes

Search period start: 26 April 2015 00:00
Search period end: 06 May 2015 00:00
Orbit: 843 x 862 km, 99.0° (Epoch: 26 April)

Date Brightness Start Highest point End Pass type
(mag) Time Alt. Az. Time Alt. Az. Time Alt. Az.
26 Apr 7.1 02:22:20 10° NE 02:25:40 23° ENE 02:25:40 23° ENE visible
26 Apr 5.9 04:02:31 10° N 04:07:35 36° WNW 04:07:44 36° WNW visible
27 Apr 7.4 02:11:37 10° NE 02:14:24 18° ENE 02:14:24 18° ENE visible
27 Apr 5.6 03:51:07 10° N 03:56:26 46° WNW 03:56:28 46° WNW visible
28 Apr 7.6 02:01:09 10° ENE 02:03:08 14° E 02:03:08 14° E visible
28 Apr 5.3 03:39:47 10° N 03:45:11 59° WNW 03:45:11 59° WNW visible
29 Apr 7.8 01:51:18 10° ENE 01:51:52 11° E 01:51:52 11° E visible
29 Apr 5.1 03:28:30 10° N 03:33:55 75° WNW 03:33:55 75° WNW visible
30 Apr 5.2 03:17:16 10° NNE 03:22:39 82° NE 03:22:39 82° NE visible
30 Apr 7.2 05:01:12 10° NW 05:02:58 11° WNW 05:04:21 10° WNW visible
01 May 5.4 03:06:07 10° NNE 03:11:22 66° E 03:11:22 66° E visible
01 May 7.0 04:48:49 10° NNW 04:51:52 15° WNW 04:53:26 13° W visible
02 May 5.8 02:55:00 10° NNE 03:00:06 51° E 03:00:06 51° E visible
02 May 6.8 04:36:57 10° NNW 04:40:46 19° WNW 04:42:09 17° W visible
03 May 6.2 02:43:57 10° NNE 02:48:49 40° E 02:48:49 40° E visible
03 May 6.5 04:25:17 10° NNW 04:29:39 23° WNW 04:30:52 21° W visible
04 May 6.6 02:32:59 10° NE 02:37:32 31° E 02:37:32 31° E visible
04 May 6.2 04:13:44 10° N 04:18:30 29° WNW 04:19:35 27° W visible
05 May 6.9 02:22:08 10° NE 02:26:15 24° E 02:26:15 24° E visible
05 May 5.9 04:02:16 10° N 04:07:21 37° WNW 04:08:18 34° W visible
